STARLINK-32344, 61719

Orbit data source: Space-Track

STARLINK-32344, 61719 is a payload satellite owned by SpaceX/Seattle (US) in LEO that was launched on Wed, 30 Oct 2024 UTC via an FALCON 9 launch vehicle from the Air Force Eastern Test Range (AFETR). Payload-class satellites include a variety of spacecraft equipped with specific instruments for various scientific and technological missions. These include communications satellites like Starlink; space stations such as the ISS; scientific satellites like the Hubble; Earth observation satellites from companies like Planet Labs, Umbra, and HawkEye 360; GPS; miniature CubeSats for education and research; and military/defense satellites.

Loading next visibility...
Identifier
61719, 2024-196N
Orbit
LEO
Country
Flag of USUS
Related business
Manufacturer
SpaceX/Seattle
Mission
Operational Commercial Communications
Bus & Motor
STARLINK V2M, Unknown motor
Mass
730 kg wet, ~700 kg dry
Launch date (UTC)
2024-10-30 (1 year ago)
Launch vehicle
FALCON 9
Launch site
Air Force Eastern Test Range (AFETR)
Object type
Payload
Rocket body
Debris
Shape & HBR
Box + 2 Pan, 17.7 m
Radar Cross Section
33.884 m², Large (>1 m²)

Expand to show TLE details & history
Last TLE update: 9 hours ago

TLE from 9 hours ago
0 STARLINK-32344
1 61719U 24196N   25310.30700181  .00002660  00000-0  10194-3 0  9999
2 61719  53.1617 314.6190 0001192 111.5452 248.5676 15.30191732 58266
Epoch: 2025-11-06T07:22Z
TLE epoch observation values (Epoch: 2025-11-06T07:22:04.956Z)
Latitude
-0.00001°
Longitude
158.33114°
Altitude
476.438 km
Speed
7.629 km/s
True Right ascension
20h 58m 28s
True Declination
0° 00' 00"
Sunlit
Object was in daylight at epoch
Visualization orbit readout
Latitude
Unknown
Longitude
Unknown
Altitude
Unknown
Speed
Unknown
Apparent Right ascension
Unknown
Apparent Declination
Unknown
Sunlit
N/A
Visualization observer readout
Local Sidereal Time
12:30:18
Azimuth
Unknown
Elevation
Unknown
Doppler factor
Unknown
Orbital elements
Apogee altitude
476.313 km
Perigee altitude
474.679 km
Semi-major axis
6,853.633 km
Eccentricity
0.00012
Inclination
53.1617°
RAAN
314.619°
Arg. of periapsis
111.5452°
True anomaly
248.55489°
Mean anomaly
248.5676°
Eccentric anomaly
248.56124°
Mean motion
3.82527 °/min
Orbital period
94.11 mins
BSTAR
0.00010194
Loading maneuver chart data...
Computing Atmospheric mass density...
Loading historical data...
Loading historical data...
Loading historical data...
Loading historical data...
Loading historical data...
Loading historical data...
Loading historical data...

Documentation

Showing up to 5 results
|